iso_date,epoch_date,Year,Hour,Min,DOY,POS_DOY,Lat,Lon,BP,Ts,Ta,has_bp,has_ts,has_ta,BuoyID,Buoy_Type,Buoy_Owner,Logistics,Hemisphere
2018-09-18T19:00:28Z,1537297229,2018,19,0,261.792,261.792,82.8116,21.3326,1020.8,-0.5,-999.0,yes,yes,no,300234065742820,SVP,E-Surfmar,Oden,North
2018-09-18T19:59:31Z,1537300771,2018,20,0,261.833,261.833,82.8116,21.3196,1020.7,-2.5,-999.0,yes,yes,no,300234065742820,SVP,E-Surfmar,Oden,North
2018-09-18T21:00:00Z,1537304400,2018,21,0,261.875,261.875,82.811,21.306,1020.7,-3.7,-999.0,yes,yes,no,300234065742820,SVP,E-Surfmar,Oden,North
2018-09-18T22:00:28Z,1537308029,2018,22,0,261.917,261.917,82.8102,21.2954,1020.9,-4.0,-999.0,yes,yes,no,300234065742820,SVP,E-Surfmar,Oden,North
2018-09-18T22:59:31Z,1537311571,2018,23,0,261.958,261.958,82.8092,21.2844,1021.0,-4.3,-999.0,yes,yes,no,300234065742820,SVP,E-Surfmar,Oden,North
2018-09-19T00:00:00Z,1537315200,2018,0,0,262.0,262.0,82.8082,21.2672,1020.9,-4.5,-999.0,yes,yes,no,300234065742820,SVP,E-Surfmar,Oden,North
2018-09-19T01:00:28Z,1537318829,2018,1,0,262.042,262.042,82.8066,21.2432,1021.2,-5.1,-999.0,yes,yes,no,300234065742820,SVP,E-Surfmar,Oden,North
2018-09-19T01:59:31Z,1537322371,2018,2,0,262.083,262.083,82.805,21.207,1021.2,-5.5,-999.0,yes,yes,no,300234065742820,SVP,E-Surfmar,Oden,North
2018-09-19T03:00:00Z,1537326000,2018,3,0,262.125,262.125,82.8036,21.162,1021.1,-5.0,-999.0,yes,yes,no,300234065742820,SVP,E-Surfmar,Oden,North
2018-09-19T04:00:28Z,1537329629,2018,4,0,262.167,262.167,82.8016,21.1072,1021.1,-4.4,-999.0,yes,yes,no,300234065742820,SVP,E-Surfmar,Oden,North
2018-09-19T04:59:31Z,1537333171,2018,5,0,262.208,262.208,82.8002,21.0514,1021.2,-4.2,-999.0,yes,yes,no,300234065742820,SVP,E-Surfmar,Oden,North
2018-09-19T06:00:00Z,1537336800,2018,6,0,262.25,262.25,82.7996,20.9968,1021.1,-4.1,-999.0,yes,yes,no,300234065742820,SVP,E-Surfmar,Oden,North
2018-09-19T07:00:28Z,1537340429,2018,7,0,262.292,262.292,82.7996,20.9476,1021.2,-4.0,-999.0,yes,yes,no,300234065742820,SVP,E-Surfmar,Oden,North
2018-09-19T07:59:31Z,1537343971,2018,8,0,262.333,262.333,82.8002,20.9074,1021.2,-4.0,-999.0,yes,yes,no,300234065742820,SVP,E-Surfmar,Oden,North
2018-09-19T09:00:00Z,1537347600,2018,9,0,262.375,262.375,82.8006,20.8808,1021.4,-4.4,-999.0,yes,yes,no,300234065742820,SVP,E-Surfmar,Oden,North
2018-09-19T10:00:28Z,1537351229,2018,10,0,262.417,262.417,82.8006,20.8666,1021.4,-4.6,-999.0,yes,yes,no,300234065742820,SVP,E-Surfmar,Oden,North
2018-09-19T10:59:31Z,1537354771,2018,11,0,262.458,262.458,82.7996,20.8584,1021.6,-4.6,-999.0,yes,yes,no,300234065742820,SVP,E-Surfmar,Oden,North
2018-09-19T12:00:00Z,1537358400,2018,12,0,262.5,262.5,82.7978,20.852,1021.3,-4.5,-999.0,yes,yes,no,300234065742820,SVP,E-Surfmar,Oden,North
2018-09-19T13:00:28Z,1537362029,2018,13,0,262.542,262.542,82.7948,20.8414,1021.3,-4.3,-999.0,yes,yes,no,300234065742820,SVP,E-Surfmar,Oden,North
2018-09-19T13:59:31Z,1537365571,2018,14,0,262.583,262.583,82.7914,20.8252,1021.3,-4.1,-999.0,yes,yes,no,300234065742820,SVP,E-Surfmar,Oden,North
2018-09-19T15:00:00Z,1537369200,2018,15,0,262.625,262.625,82.7874,20.8018,1021.1,-4.0,-999.0,yes,yes,no,300234065742820,SVP,E-Surfmar,Oden,North
2018-09-19T16:00:28Z,1537372829,2018,16,0,262.667,262.667,82.7834,20.768,1020.8,-3.8,-999.0,yes,yes,no,300234065742820,SVP,E-Surfmar,Oden,North
2018-09-19T16:59:31Z,1537376371,2018,17,0,262.708,262.708,82.7802,20.722,1020.7,-3.7,-999.0,yes,yes,no,300234065742820,SVP,E-Surfmar,Oden,North
2018-09-19T18:00:00Z,1537380000,2018,18,0,262.75,262.75,82.7782,20.6724,1020.6,-4.0,-999.0,yes,yes,no,300234065742820,SVP,E-Surfmar,Oden,North
2018-09-19T19:00:28Z,1537383629,2018,19,0,262.792,262.792,82.7766,20.628,1020.4,-4.4,-999.0,yes,yes,no,300234065742820,SVP,E-Surfmar,Oden,North
2018-09-19T19:59:31Z,1537387171,2018,20,0,262.833,262.833,82.7754,20.5884,1020.5,-5.5,-999.0,yes,yes,no,300234065742820,SVP,E-Surfmar,Oden,North
2018-09-19T21:00:00Z,1537390800,2018,21,0,262.875,262.875,82.7744,20.5568,1020.4,-6.4,-999.0,yes,yes,no,300234065742820,SVP,E-Surfmar,Oden,North
2018-09-19T22:00:28Z,1537394429,2018,22,0,262.917,262.917,82.774,20.5326,1020.2,-6.7,-999.0,yes,yes,no,300234065742820,SVP,E-Surfmar,Oden,North
2018-09-19T22:59:31Z,1537397971,2018,23,0,262.958,262.958,82.7738,20.5098,1019.8,-6.8,-999.0,yes,yes,no,300234065742820,SVP,E-Surfmar,Oden,North
2018-09-20T00:00:00Z,1537401600,2018,0,0,263.0,263.0,82.7732,20.4878,1019.8,-6.9,-999.0,yes,yes,no,300234065742820,SVP,E-Surfmar,Oden,North
2018-09-20T01:00:28Z,1537405229,2018,1,0,263.042,263.042,82.7716,20.4648,1019.4,-6.6,-999.0,yes,yes,no,300234065742820,SVP,E-Surfmar,Oden,North
2018-09-20T01:59:31Z,1537408771,2018,2,0,263.083,263.083,82.7696,20.4376,1019.3,-6.4,-999.0,yes,yes,no,300234065742820,SVP,E-Surfmar,Oden,North
2018-09-20T03:00:00Z,1537412400,2018,3,0,263.125,263.125,82.7678,20.4082,1019.1,-6.3,-999.0,yes,yes,no,300234065742820,SVP,E-Surfmar,Oden,North
2018-09-20T04:00:28Z,1537416029,2018,4,0,263.167,263.167,82.7666,20.3776,1019.1,-6.0,-999.0,yes,yes,no,300234065742820,SVP,E-Surfmar,Oden,North
2018-09-20T04:59:31Z,1537419571,2018,5,0,263.208,263.208,82.7656,20.3462,1018.7,-5.7,-999.0,yes,yes,no,300234065742820,SVP,E-Surfmar,Oden,North
2018-09-20T06:00:00Z,1537423200,2018,6,0,263.25,263.25,82.7642,20.314,1018.4,-5.5,-999.0,yes,yes,no,300234065742820,SVP,E-Surfmar,Oden,North
2018-09-20T07:00:28Z,1537426829,2018,7,0,263.292,263.292,82.7632,20.2868,1018.2,-5.3,-999.0,yes,yes,no,300234065742820,SVP,E-Surfmar,Oden,North
2018-09-20T07:59:31Z,1537430371,2018,8,0,263.333,263.333,82.762,20.2656,1018.0,-5.2,-999.0,yes,yes,no,300234065742820,SVP,E-Surfmar,Oden,North
2018-09-20T09:00:00Z,1537434000,2018,9,0,263.375,263.375,82.7608,20.2486,1017.8,-5.0,-999.0,yes,yes,no,300234065742820,SVP,E-Surfmar,Oden,North
2018-09-20T10:00:28Z,1537437629,2018,10,0,263.417,263.417,82.7592,20.2336,1017.7,-4.9,-999.0,yes,yes,no,300234065742820,SVP,E-Surfmar,Oden,North
2018-09-20T10:59:31Z,1537441171,2018,11,0,263.458,263.458,82.7574,20.2176,1017.7,-5.4,-999.0,yes,yes,no,300234065742820,SVP,E-Surfmar,Oden,North
2018-09-20T12:00:00Z,1537444800,2018,12,0,263.5,263.5,82.7552,20.2002,1017.4,-5.1,-999.0,yes,yes,no,300234065742820,SVP,E-Surfmar,Oden,North
2018-09-20T13:00:28Z,1537448429,2018,13,0,263.542,263.542,82.7524,20.1778,1017.2,-4.8,-999.0,yes,yes,no,300234065742820,SVP,E-Surfmar,Oden,North
2018-09-20T13:59:31Z,1537451971,2018,14,0,263.583,263.583,82.7496,20.1478,1017.1,-4.8,-999.0,yes,yes,no,300234065742820,SVP,E-Surfmar,Oden,North
2018-09-20T15:00:00Z,1537455600,2018,15,0,263.625,263.625,82.7472,20.1112,1017.1,-4.9,-999.0,yes,yes,no,300234065742820,SVP,E-Surfmar,Oden,North
2018-09-20T16:00:28Z,1537459229,2018,16,0,263.667,263.667,82.7452,20.0718,1016.8,-4.8,-999.0,yes,yes,no,300234065742820,SVP,E-Surfmar,Oden,North
2018-09-20T16:59:31Z,1537462771,2018,17,0,263.708,263.708,82.744,20.031,1016.5,-4.7,-999.0,yes,yes,no,300234065742820,SVP,E-Surfmar,Oden,North
2018-09-20T18:00:00Z,1537466400,2018,18,0,263.75,263.75,82.7432,19.9912,1016.2,-4.6,-999.0,yes,yes,no,300234065742820,SVP,E-Surfmar,Oden,North
2018-09-20T19:00:28Z,1537470029,2018,19,0,263.792,263.792,82.743,19.9554,1015.9,-4.6,-999.0,yes,yes,no,300234065742820,SVP,E-Surfmar,Oden,North
2018-09-20T19:59:31Z,1537473571,2018,20,0,263.833,263.833,82.743,19.9242,1015.8,-4.6,-999.0,yes,yes,no,300234065742820,SVP,E-Surfmar,Oden,North
2018-09-20T21:00:00Z,1537477200,2018,21,0,263.875,263.875,82.743,19.8974,1015.6,-4.6,-999.0,yes,yes,no,300234065742820,SVP,E-Surfmar,Oden,North
2018-09-20T22:00:28Z,1537480829,2018,22,0,263.917,263.917,82.7426,19.8736,1015.5,-4.5,-999.0,yes,yes,no,300234065742820,SVP,E-Surfmar,Oden,North
2018-09-20T22:59:31Z,1537484371,2018,23,0,263.958,263.958,82.7418,19.8514,1015.3,-4.5,-999.0,yes,yes,no,300234065742820,SVP,E-Surfmar,Oden,North
2018-09-21T00:00:00Z,1537488000,2018,0,0,264.0,264.0,82.7404,19.8292,1015.4,-4.5,-999.0,yes,yes,no,300234065742820,SVP,E-Surfmar,Oden,North
2018-09-21T01:00:28Z,1537491629,2018,1,0,264.042,264.042,82.7386,19.8042,1015.3,-4.5,-999.0,yes,yes,no,300234065742820,SVP,E-Surfmar,Oden,North
2018-09-21T01:59:31Z,1537495171,2018,2,0,264.083,264.083,82.7368,19.775,1015.3,-4.6,-999.0,yes,yes,no,300234065742820,SVP,E-Surfmar,Oden,North
2018-09-21T03:00:00Z,1537498800,2018,3,0,264.125,264.125,82.735,19.7412,1015.2,-4.7,-999.0,yes,yes,no,300234065742820,SVP,E-Surfmar,Oden,North
2018-09-21T04:00:28Z,1537502429,2018,4,0,264.167,264.167,82.7334,19.706,1015.0,-4.8,-999.0,yes,yes,no,300234065742820,SVP,E-Surfmar,Oden,North
2018-09-21T04:59:31Z,1537505971,2018,5,0,264.208,264.208,82.7322,19.669,1015.0,-4.9,-999.0,yes,yes,no,300234065742820,SVP,E-Surfmar,Oden,North
2018-09-21T06:00:00Z,1537509600,2018,6,0,264.25,264.25,82.7312,19.6346,1014.7,-5.0,-999.0,yes,yes,no,300234065742820,SVP,E-Surfmar,Oden,North
2018-09-21T07:00:28Z,1537513229,2018,7,0,264.292,264.292,82.7304,19.605,1014.6,-4.9,-999.0,yes,yes,no,300234065742820,SVP,E-Surfmar,Oden,North
2018-09-21T07:59:31Z,1537516771,2018,8,0,264.333,264.333,82.7294,19.5802,1014.6,-4.7,-999.0,yes,yes,no,300234065742820,SVP,E-Surfmar,Oden,North
2018-09-21T09:00:00Z,1537520400,2018,9,0,264.375,264.375,82.728,19.56,1014.6,-4.6,-999.0,yes,yes,no,300234065742820,SVP,E-Surfmar,Oden,North
2018-09-21T10:00:28Z,1537524029,2018,10,0,264.417,264.417,82.726,19.54,1014.5,-4.6,-999.0,yes,yes,no,300234065742820,SVP,E-Surfmar,Oden,North
2018-09-21T10:59:31Z,1537527571,2018,11,0,264.458,264.458,82.7236,19.5184,1014.4,-4.9,-999.0,yes,yes,no,300234065742820,SVP,E-Surfmar,Oden,North
2018-09-21T12:00:00Z,1537531200,2018,12,0,264.5,264.5,82.7208,19.4942,1014.5,-4.6,-999.0,yes,yes,no,300234065742820,SVP,E-Surfmar,Oden,North
2018-09-21T13:00:28Z,1537534829,2018,13,0,264.542,264.542,82.7176,19.4644,1014.5,-4.5,-999.0,yes,yes,no,300234065742820,SVP,E-Surfmar,Oden,North
2018-09-21T13:59:31Z,1537538371,2018,14,0,264.583,264.583,82.7142,19.4288,1014.6,-4.6,-999.0,yes,yes,no,300234065742820,SVP,E-Surfmar,Oden,North
2018-09-21T15:00:00Z,1537542000,2018,15,0,264.625,264.625,82.7114,19.3892,1014.5,-4.9,-999.0,yes,yes,no,300234065742820,SVP,E-Surfmar,Oden,North
2018-09-21T16:00:28Z,1537545629,2018,16,0,264.667,264.667,82.7092,19.349,1014.7,-5.6,-999.0,yes,yes,no,300234065742820,SVP,E-Surfmar,Oden,North
2018-09-21T16:59:31Z,1537549171,2018,17,0,264.708,264.708,82.7076,19.3052,1014.3,-6.3,-999.0,yes,yes,no,300234065742820,SVP,E-Surfmar,Oden,North
2018-09-21T18:00:00Z,1537552800,2018,18,0,264.75,264.75,82.7066,19.2628,1014.3,-6.9,-999.0,yes,yes,no,300234065742820,SVP,E-Surfmar,Oden,North
2018-09-21T19:00:28Z,1537556429,2018,19,0,264.792,264.792,82.706,19.2264,1014.2,-7.3,-999.0,yes,yes,no,300234065742820,SVP,E-Surfmar,Oden,North
2018-09-21T19:59:31Z,1537559971,2018,20,0,264.833,264.833,82.7056,19.2016,1014.2,-7.7,-999.0,yes,yes,no,300234065742820,SVP,E-Surfmar,Oden,North
2018-09-21T21:00:00Z,1537563600,2018,21,0,264.875,264.875,82.705,19.185,1014.2,-7.9,-999.0,yes,yes,no,300234065742820,SVP,E-Surfmar,Oden,North
2018-09-21T22:00:28Z,1537567229,2018,22,0,264.917,264.917,82.704,19.1726,1014.3,-8.1,-999.0,yes,yes,no,300234065742820,SVP,E-Surfmar,Oden,North
2018-09-21T22:59:31Z,1537570771,2018,23,0,264.958,264.958,82.7024,19.1634,1014.2,-8.2,-999.0,yes,yes,no,300234065742820,SVP,E-Surfmar,Oden,North
2018-09-22T00:00:00Z,1537574400,2018,0,0,265.0,265.0,82.7006,19.1502,1014.4,-8.2,-999.0,yes,yes,no,300234065742820,SVP,E-Surfmar,Oden,North
2018-09-22T01:00:28Z,1537578029,2018,1,0,265.042,265.042,82.6988,19.1352,1014.4,-8.2,-999.0,yes,yes,no,300234065742820,SVP,E-Surfmar,Oden,North
2018-09-22T01:59:31Z,1537581571,2018,2,0,265.083,265.083,82.6974,19.1154,1014.4,-8.4,-999.0,yes,yes,no,300234065742820,SVP,E-Surfmar,Oden,North
2018-09-22T03:00:00Z,1537585200,2018,3,0,265.125,265.125,82.696,19.0928,1014.4,-8.5,-999.0,yes,yes,no,300234065742820,SVP,E-Surfmar,Oden,North
2018-09-22T04:00:28Z,1537588829,2018,4,0,265.167,265.167,82.695,19.0652,1014.3,-8.6,-999.0,yes,yes,no,300234065742820,SVP,E-Surfmar,Oden,North
2018-09-22T04:59:31Z,1537592371,2018,5,0,265.208,265.208,82.6944,19.0368,1014.0,-8.7,-999.0,yes,yes,no,300234065742820,SVP,E-Surfmar,Oden,North
2018-09-22T06:00:00Z,1537596000,2018,6,0,265.25,265.25,82.6942,19.007,1013.9,-8.7,-999.0,yes,yes,no,300234065742820,SVP,E-Surfmar,Oden,North
2018-09-22T07:00:28Z,1537599629,2018,7,0,265.292,265.292,82.694,18.9782,1013.8,-8.2,-999.0,yes,yes,no,300234065742820,SVP,E-Surfmar,Oden,North
2018-09-22T07:59:31Z,1537603171,2018,8,0,265.333,265.333,82.6936,18.9522,1013.9,-7.6,-999.0,yes,yes,no,300234065742820,SVP,E-Surfmar,Oden,North
2018-09-22T09:00:00Z,1537606800,2018,9,0,265.375,265.375,82.6924,18.9284,1013.9,-7.2,-999.0,yes,yes,no,300234065742820,SVP,E-Surfmar,Oden,North
2018-09-22T10:00:28Z,1537610429,2018,10,0,265.417,265.417,82.6906,18.9052,1014.1,-7.0,-999.0,yes,yes,no,300234065742820,SVP,E-Surfmar,Oden,North
2018-09-22T10:59:31Z,1537613971,2018,11,0,265.458,265.458,82.6882,18.88,1014.1,-6.9,-999.0,yes,yes,no,300234065742820,SVP,E-Surfmar,Oden,North
2018-09-22T12:00:00Z,1537617600,2018,12,0,265.5,265.5,82.6856,18.8528,1014.3,-6.6,-999.0,yes,yes,no,300234065742820,SVP,E-Surfmar,Oden,North
2018-09-22T13:00:28Z,1537621229,2018,13,0,265.542,265.542,82.6828,18.8222,1014.1,-6.5,-999.0,yes,yes,no,300234065742820,SVP,E-Surfmar,Oden,North
2018-09-22T13:59:31Z,1537624771,2018,14,0,265.583,265.583,82.68,18.7868,1014.2,-6.7,-999.0,yes,yes,no,300234065742820,SVP,E-Surfmar,Oden,North
2018-09-22T15:00:00Z,1537628400,2018,15,0,265.625,265.625,82.6774,18.7466,1014.0,-7.2,-999.0,yes,yes,no,300234065742820,SVP,E-Surfmar,Oden,North
2018-09-22T16:00:28Z,1537632029,2018,16,0,265.667,265.667,82.6756,18.7014,1013.8,-7.7,-999.0,yes,yes,no,300234065742820,SVP,E-Surfmar,Oden,North
2018-09-22T16:59:31Z,1537635571,2018,17,0,265.708,265.708,82.6742,18.6556,1013.8,-8.2,-999.0,yes,yes,no,300234065742820,SVP,E-Surfmar,Oden,North
2018-09-22T18:00:00Z,1537639200,2018,18,0,265.75,265.75,82.6734,18.6098,1013.7,-8.4,-999.0,yes,yes,no,300234065742820,SVP,E-Surfmar,Oden,North
2018-09-22T19:00:28Z,1537642829,2018,19,0,265.792,265.792,82.673,18.5692,1013.5,-8.6,-999.0,yes,yes,no,300234065742820,SVP,E-Surfmar,Oden,North
2018-09-22T19:59:31Z,1537646371,2018,20,0,265.833,265.833,82.6724,18.5316,1013.5,-8.9,-999.0,yes,yes,no,300234065742820,SVP,E-Surfmar,Oden,North
2018-09-22T21:00:00Z,1537650000,2018,21,0,265.875,265.875,82.6718,18.4956,1013.3,-9.2,-999.0,yes,yes,no,300234065742820,SVP,E-Surfmar,Oden,North
2018-09-22T22:00:28Z,1537653629,2018,22,0,265.917,265.917,82.6706,18.4598,1013.0,-9.3,-999.0,yes,yes,no,300234065742820,SVP,E-Surfmar,Oden,North
2018-09-22T22:59:31Z,1537657171,2018,23,0,265.958,265.958,82.6696,18.4244,1012.9,-9.2,-999.0,yes,yes,no,300234065742820,SVP,E-Surfmar,Oden,North
2018-09-23T00:00:00Z,1537660800,2018,0,0,266.0,266.0,82.6684,18.3888,1012.3,-9.0,-999.0,yes,yes,no,300234065742820,SVP,E-Surfmar,Oden,North
2018-09-23T01:00:28Z,1537664429,2018,1,0,266.042,266.042,82.6676,18.3522,1012.3,-8.5,-999.0,yes,yes,no,300234065742820,SVP,E-Surfmar,Oden,North
2018-09-23T01:59:31Z,1537667971,2018,2,0,266.083,266.083,82.6674,18.313,1012.2,-8.2,-999.0,yes,yes,no,300234065742820,SVP,E-Surfmar,Oden,North
2018-09-23T03:00:00Z,1537671600,2018,3,0,266.125,266.125,82.6676,18.2704,1012.0,-8.0,-999.0,yes,yes,no,300234065742820,SVP,E-Surfmar,Oden,North
2018-09-23T04:00:28Z,1537675229,2018,4,0,266.167,266.167,82.668,18.224,1011.5,-8.0,-999.0,yes,yes,no,300234065742820,SVP,E-Surfmar,Oden,North
2018-09-23T04:59:31Z,1537678771,2018,5,0,266.208,266.208,82.6684,18.1738,1011.0,-7.9,-999.0,yes,yes,no,300234065742820,SVP,E-Surfmar,Oden,North
2018-09-23T06:00:00Z,1537682400,2018,6,0,266.25,266.25,82.6686,18.122,1010.6,-8.1,-999.0,yes,yes,no,300234065742820,SVP,E-Surfmar,Oden,North
2018-09-23T07:00:28Z,1537686029,2018,7,0,266.292,266.292,82.6686,18.0726,1010.3,-8.2,-999.0,yes,yes,no,300234065742820,SVP,E-Surfmar,Oden,North
2018-09-23T07:59:31Z,1537689571,2018,8,0,266.333,266.333,82.6684,18.0276,1010.3,-8.5,-999.0,yes,yes,no,300234065742820,SVP,E-Surfmar,Oden,North
2018-09-23T09:00:00Z,1537693200,2018,9,0,266.375,266.375,82.6676,17.9842,1009.8,-8.6,-999.0,yes,yes,no,300234065742820,SVP,E-Surfmar,Oden,North
2018-09-23T10:00:28Z,1537696829,2018,10,0,266.417,266.417,82.6656,17.9396,1009.2,-8.6,-999.0,yes,yes,no,300234065742820,SVP,E-Surfmar,Oden,North
2018-09-23T10:59:31Z,1537700371,2018,11,0,266.458,266.458,82.6624,17.8914,1008.6,-8.5,-999.0,yes,yes,no,300234065742820,SVP,E-Surfmar,Oden,North
2018-09-23T12:00:00Z,1537704000,2018,12,0,266.5,266.5,82.6584,17.8342,1008.2,-8.1,-999.0,yes,yes,no,300234065742820,SVP,E-Surfmar,Oden,North
2018-09-23T13:00:28Z,1537707629,2018,13,0,266.542,266.542,82.6536,17.7676,1007.1,-8.2,-999.0,yes,yes,no,300234065742820,SVP,E-Surfmar,Oden,North
2018-09-23T13:59:31Z,1537711171,2018,14,0,266.583,266.583,82.649,17.6922,1006.3,-8.2,-999.0,yes,yes,no,300234065742820,SVP,E-Surfmar,Oden,North
2018-09-23T15:00:00Z,1537714800,2018,15,0,266.625,266.625,82.6448,17.61,1005.6,-7.8,-999.0,yes,yes,no,300234065742820,SVP,E-Surfmar,Oden,North
2018-09-23T16:00:28Z,1537718429,2018,16,0,266.667,266.667,82.6416,17.5214,1004.5,-7.2,-999.0,yes,yes,no,300234065742820,SVP,E-Surfmar,Oden,North
2018-09-23T16:59:31Z,1537721971,2018,17,0,266.708,266.708,82.639,17.429,1003.8,-6.7,-999.0,yes,yes,no,300234065742820,SVP,E-Surfmar,Oden,North
2018-09-23T18:00:00Z,1537725600,2018,18,0,266.75,266.75,82.6358,17.327,1002.3,-6.4,-999.0,yes,yes,no,300234065742820,SVP,E-Surfmar,Oden,North
2018-09-23T19:00:28Z,1537729229,2018,19,0,266.792,266.792,82.6326,17.2202,1001.4,-6.2,-999.0,yes,yes,no,300234065742820,SVP,E-Surfmar,Oden,North
2018-09-23T19:59:31Z,1537732771,2018,20,0,266.833,266.833,82.6286,17.1148,999.9,-5.8,-999.0,yes,yes,no,300234065742820,SVP,E-Surfmar,Oden,North
2018-09-23T21:00:00Z,1537736400,2018,21,0,266.875,266.875,82.6246,17.0112,998.3,-5.6,-999.0,yes,yes,no,300234065742820,SVP,E-Surfmar,Oden,North
2018-09-23T22:00:28Z,1537740029,2018,22,0,266.917,266.917,82.6202,16.9142,997.0,-5.4,-999.0,yes,yes,no,300234065742820,SVP,E-Surfmar,Oden,North
2018-09-23T22:59:31Z,1537743571,2018,23,0,266.958,266.958,82.6162,16.8234,995.8,-5.1,-999.0,yes,yes,no,300234065742820,SVP,E-Surfmar,Oden,North
2018-09-24T00:00:00Z,1537747200,2018,0,0,267.0,267.0,82.6132,16.7374,994.6,-4.8,-999.0,yes,yes,no,300234065742820,SVP,E-Surfmar,Oden,North
2018-09-24T01:00:28Z,1537750829,2018,1,0,267.042,267.042,82.611,16.657,993.1,-4.5,-999.0,yes,yes,no,300234065742820,SVP,E-Surfmar,Oden,North
2018-09-24T01:59:31Z,1537754371,2018,2,0,267.083,267.083,82.6092,16.58,991.7,-4.3,-999.0,yes,yes,no,300234065742820,SVP,E-Surfmar,Oden,North
2018-09-24T03:00:00Z,1537758000,2018,3,0,267.125,267.125,82.6078,16.5048,990.4,-4.2,-999.0,yes,yes,no,300234065742820,SVP,E-Surfmar,Oden,North
2018-09-24T04:00:28Z,1537761629,2018,4,0,267.167,267.167,82.6066,16.4338,989.3,-4.2,-999.0,yes,yes,no,300234065742820,SVP,E-Surfmar,Oden,North
2018-09-24T04:59:31Z,1537765171,2018,5,0,267.208,267.208,82.6056,16.3644,987.9,-4.1,-999.0,yes,yes,no,300234065742820,SVP,E-Surfmar,Oden,North
2018-09-24T06:00:00Z,1537768800,2018,6,0,267.25,267.25,82.6046,16.298,986.5,-4.1,-999.0,yes,yes,no,300234065742820,SVP,E-Surfmar,Oden,North
2018-09-24T07:00:28Z,1537772429,2018,7,0,267.292,267.292,82.6032,16.2386,985.6,-4.0,-999.0,yes,yes,no,300234065742820,SVP,E-Surfmar,Oden,North
2018-09-24T07:59:31Z,1537775971,2018,8,0,267.333,267.333,82.6018,16.1924,985.2,-3.6,-999.0,yes,yes,no,300234065742820,SVP,E-Surfmar,Oden,North
2018-09-24T09:00:00Z,1537779600,2018,9,0,267.375,267.375,82.6,16.1588,984.6,-3.2,-999.0,yes,yes,no,300234065742820,SVP,E-Surfmar,Oden,North
2018-09-24T10:00:28Z,1537783229,2018,10,0,267.417,267.417,82.598,16.1356,984.1,-2.7,-999.0,yes,yes,no,300234065742820,SVP,E-Surfmar,Oden,North
2018-09-24T10:59:31Z,1537786771,2018,11,0,267.458,267.458,82.5954,16.124,983.9,-2.2,-999.0,yes,yes,no,300234065742820,SVP,E-Surfmar,Oden,North
2018-09-24T12:00:00Z,1537790400,2018,12,0,267.5,267.5,82.5916,16.1178,983.1,-1.6,-999.0,yes,yes,no,300234065742820,SVP,E-Surfmar,Oden,North
2018-09-24T13:00:28Z,1537794029,2018,13,0,267.542,267.542,82.5868,16.1102,982.8,-1.2,-999.0,yes,yes,no,300234065742820,SVP,E-Surfmar,Oden,North
2018-09-24T13:59:31Z,1537797571,2018,14,0,267.583,267.583,82.5818,16.095,982.4,-0.9,-999.0,yes,yes,no,300234065742820,SVP,E-Surfmar,Oden,North
2018-09-24T15:00:00Z,1537801200,2018,15,0,267.625,267.625,82.5766,16.0712,981.9,-0.6,-999.0,yes,yes,no,300234065742820,SVP,E-Surfmar,Oden,North
2018-09-24T16:00:28Z,1537804829,2018,16,0,267.667,267.667,82.5722,16.0394,981.6,-0.6,-999.0,yes,yes,no,300234065742820,SVP,E-Surfmar,Oden,North
2018-09-24T16:59:31Z,1537808371,2018,17,0,267.708,267.708,82.5688,15.9996,981.1,-0.6,-999.0,yes,yes,no,300234065742820,SVP,E-Surfmar,Oden,North
2018-09-24T18:00:00Z,1537812000,2018,18,0,267.75,267.75,82.5664,15.9582,980.7,-0.7,-999.0,yes,yes,no,300234065742820,SVP,E-Surfmar,Oden,North
2018-09-24T19:00:28Z,1537815629,2018,19,0,267.792,267.792,82.5646,15.92,980.3,-0.7,-999.0,yes,yes,no,300234065742820,SVP,E-Surfmar,Oden,North
2018-09-24T19:59:31Z,1537819171,2018,20,0,267.833,267.833,82.563,15.8862,980.3,-0.7,-999.0,yes,yes,no,300234065742820,SVP,E-Surfmar,Oden,North
2018-09-24T21:00:00Z,1537822800,2018,21,0,267.875,267.875,82.5616,15.8576,979.7,-0.6,-999.0,yes,yes,no,300234065742820,SVP,E-Surfmar,Oden,North
2018-09-24T22:00:28Z,1537826429,2018,22,0,267.917,267.917,82.5596,15.8394,979.5,0.2,-999.0,yes,yes,no,300234065742820,SVP,E-Surfmar,Oden,North
2018-09-24T22:59:31Z,1537829971,2018,23,0,267.958,267.958,82.5584,15.8302,979.7,0.1,-999.0,yes,yes,no,300234065742820,SVP,E-Surfmar,Oden,North
2018-09-25T00:00:00Z,1537833600,2018,0,0,268.0,268.0,82.557,15.8318,979.5,0.1,-999.0,yes,yes,no,300234065742820,SVP,E-Surfmar,Oden,North
2018-09-25T01:00:28Z,1537837229,2018,1,0,268.042,268.042,82.5544,15.8354,979.8,-0.3,-999.0,yes,yes,no,300234065742820,SVP,E-Surfmar,Oden,North
2018-09-25T01:59:31Z,1537840771,2018,2,0,268.083,268.083,82.5514,15.8354,979.6,-0.8,-999.0,yes,yes,no,300234065742820,SVP,E-Surfmar,Oden,North
2018-09-25T03:00:00Z,1537844400,2018,3,0,268.125,268.125,82.5474,15.833,979.4,-1.6,-999.0,yes,yes,no,300234065742820,SVP,E-Surfmar,Oden,North
2018-09-25T04:00:28Z,1537848029,2018,4,0,268.167,268.167,82.543,15.8246,979.9,-2.1,-999.0,yes,yes,no,300234065742820,SVP,E-Surfmar,Oden,North
2018-09-25T04:59:31Z,1537851571,2018,5,0,268.208,268.208,82.5384,15.8156,980.1,-2.8,-999.0,yes,yes,no,300234065742820,SVP,E-Surfmar,Oden,North
2018-09-25T06:00:00Z,1537855200,2018,6,0,268.25,268.25,82.5332,15.806,980.4,-3.3,-999.0,yes,yes,no,300234065742820,SVP,E-Surfmar,Oden,North
2018-09-25T07:00:28Z,1537858829,2018,7,0,268.292,268.292,82.5274,15.795,980.6,-3.8,-999.0,yes,yes,no,300234065742820,SVP,E-Surfmar,Oden,North
2018-09-25T07:59:31Z,1537862371,2018,8,0,268.333,268.333,82.521,15.7834,981.1,-4.1,-999.0,yes,yes,no,300234065742820,SVP,E-Surfmar,Oden,North
2018-09-25T09:00:00Z,1537866000,2018,9,0,268.375,268.375,82.514,15.773,981.2,-4.4,-999.0,yes,yes,no,300234065742820,SVP,E-Surfmar,Oden,North
2018-09-25T10:00:28Z,1537869629,2018,10,0,268.417,268.417,82.5062,15.764,981.6,-4.5,-999.0,yes,yes,no,300234065742820,SVP,E-Surfmar,Oden,North
2018-09-25T10:59:31Z,1537873171,2018,11,0,268.458,268.458,82.4972,15.7568,981.7,-4.7,-999.0,yes,yes,no,300234065742820,SVP,E-Surfmar,Oden,North
2018-09-25T12:00:00Z,1537876800,2018,12,0,268.5,268.5,82.4872,15.7492,981.9,-5.0,-999.0,yes,yes,no,300234065742820,SVP,E-Surfmar,Oden,North
2018-09-25T13:00:28Z,1537880429,2018,13,0,268.542,268.542,82.4762,15.739,981.9,-5.2,-999.0,yes,yes,no,300234065742820,SVP,E-Surfmar,Oden,North
2018-09-25T13:59:31Z,1537883971,2018,14,0,268.583,268.583,82.4646,15.7196,981.9,-5.4,-999.0,yes,yes,no,300234065742820,SVP,E-Surfmar,Oden,North
2018-09-25T15:00:00Z,1537887600,2018,15,0,268.625,268.625,82.4528,15.6916,982.0,-5.7,-999.0,yes,yes,no,300234065742820,SVP,E-Surfmar,Oden,North
2018-09-25T16:00:28Z,1537891229,2018,16,0,268.667,268.667,82.4416,15.6548,981.7,-5.9,-999.0,yes,yes,no,300234065742820,SVP,E-Surfmar,Oden,North